| time (UTC) | temp F | wind direction | speed knots | gust knots | rain 1hr in | rain 24hr in | rain mn in | humidity % | barometer mb |
| 20260505140526 | 63 | 139 | 0.0 | 5.2 | 0.00 | 0.07 | 0.07 | 81 | 1009.7 |
| 20260505125025 | 63 | 193 | 3.5 | 6.1 | 0.00 | 0.07 | 0.07 | 79 | 1009.0 |
| 20260505124545 | 63 | 200 | 1.7 | 7.0 | 0.00 | 0.07 | 0.07 | 79 | 1009.0 |
| 20260505124025 | 63 | 151 | 2.6 | 7.0 | 0.00 | 0.07 | 0.07 | 79 | 1009.0 |
| 20260505123524 | 63 | 144 | 2.6 | 6.1 | 0.00 | 0.07 | 0.07 | 78 | 1009.0 |
| 20260505123040 | 63 | 178 | 3.5 | 6.1 | 0.00 | 0.07 | 0.07 | 78 | 1009.0 |
| 20260505122524 | 63 | 183 | 2.6 | 6.1 | 0.00 | 0.07 | 0.07 | 77 | 1008.8 |
| 20260505122025 | 63 | 196 | 2.6 | 6.1 | 0.00 | 0.07 | 0.07 | 77 | 1008.8 |
| 20260505121539 | 63 | 167 | 2.6 | 6.1 | 0.00 | 0.07 | 0.07 | 77 | 1008.8 |
| 20260505121025 | 62 | 171 | 2.6 | 5.2 | 0.00 | 0.07 | 0.07 | 79 | 1008.7 |
| 20260505120524 | 62 | 140 | 0.9 | 3.5 | 0.00 | 0.07 | 0.07 | 80 | 1008.7 |
| 20260505120039 | 62 | 163 | 1.7 | 5.2 | 0.00 | 0.07 | 0.07 | 80 | 1008.7 |
| 20260505115524 | 62 | 158 | 0.9 | 5.2 | 0.00 | 0.07 | 0.07 | 80 | 1008.8 |
| 20260505115024 | 62 | 140 | 2.6 | 5.2 | 0.00 | 0.07 | 0.07 | 79 | 1008.8 |
| 20260505114540 | 62 | 164 | 1.7 | 6.1 | 0.00 | 0.07 | 0.07 | 79 | 1008.7 |
| 20260505114028 | 62 | 140 | 1.7 | 7.0 | 0.00 | 0.07 | 0.07 | 79 | 1008.7 |
| 20260505113524 | 62 | 194 | 3.5 | 7.8 | 0.00 | 0.07 | 0.07 | 79 | 1008.6 |
| 20260505113050 | 62 | 160 | 3.5 | 7.8 | 0.00 | 0.07 | 0.07 | 78 | 1008.5 |
| 20260505112526 | 62 | 170 | 3.5 | 8.7 | 0.00 | 0.07 | 0.07 | 78 | 1008.6 |
| 20260505112024 | 62 | 165 | 3.5 | 8.7 | 0.00 | 0.07 | 0.07 | 78 | 1008.7 |
| 20260505111540 | 62 | 186 | 2.6 | 7.8 | 0.00 | 0.07 | 0.07 | 78 | 1008.7 |
| 20260505111026 | 62 | 144 | 3.5 | 8.7 | 0.00 | 0.07 | 0.07 | 78 | 1008.7 |
| 20260505110528 | 62 | 183 | 3.5 | 9.6 | 0.00 | 0.07 | 0.07 | 79 | 1008.8 |
| 20260505102025 | 62 | 171 | 4.3 | 8.7 | 0.00 | 0.07 | 0.07 | 77 | 1009.6 |
| 20260505101555 | 63 | 186 | 3.5 | 7.8 | 0.00 | 0.07 | 0.07 | 77 | 1009.6 |
| 20260505101025 | 63 | 163 | 3.5 | 7.8 | 0.00 | 0.07 | 0.07 | 77 | 1009.6 |
| 20260505100525 | 63 | 184 | 2.6 | 7.0 | 0.00 | 0.07 | 0.07 | 77 | 1009.6 |
| 20260505100058 | 62 | 193 | 2.6 | 7.0 | 0.00 | 0.07 | 0.07 | 78 | 1009.8 |
| 20260505095527 | 62 | 170 | 3.5 | 7.0 | 0.00 | 0.07 | 0.07 | 78 | 1009.8 |
| 20260505095025 | 62 | 169 | 3.5 | 7.0 | 0.00 | 0.07 | 0.07 | 79 | 1009.9 |
| 20260505094541 | 62 | 195 | 3.5 | 7.0 | 0.00 | 0.07 | 0.07 | 80 | 1009.8 |
| 20260505094025 | 62 | 193 | 3.5 | 7.0 | 0.01 | 0.07 | 0.07 | 81 | 1009.8 |
| 20260505093525 | 62 | 184 | 3.5 | 6.1 | 0.01 | 0.07 | 0.07 | 82 | 1009.7 |
| 20260505093040 | 61 | 126 | 2.6 | 5.2 | 0.02 | 0.07 | 0.07 | 82 | 1009.8 |
| 20260505092525 | 61 | 199 | 1.7 | 6.1 | 0.03 | 0.07 | 0.07 | 83 | 1009.8 |
| 20260505092024 | 61 | 182 | 1.7 | 6.1 | 0.04 | 0.07 | 0.07 | 84 | 1009.9 |
| 20260505091539 | 61 | 157 | 2.6 | 7.0 | 0.04 | 0.07 | 0.07 | 84 | 1009.9 |
| 20260505091025 | 61 | 140 | 2.6 | 7.0 | 0.05 | 0.07 | 0.07 | 85 | 1010.1 |
| 20260505090524 | 61 | 180 | 3.5 | 7.0 | 0.05 | 0.07 | 0.07 | 86 | 1010.0 |
| 20260505090044 | 61 | 121 | 1.7 | 5.2 | 0.05 | 0.07 | 0.07 | 85 | 1010.3 |
| 20260505085524 | 61 | 144 | 1.7 | 4.3 | 0.05 | 0.07 | 0.07 | 85 | 1010.1 |
| 20260505085024 | 61 | 146 | 1.7 | 6.1 | 0.05 | 0.07 | 0.07 | 84 | 1010.3 |
| 20260505084541 | 61 | 146 | 1.7 | 6.1 | 0.05 | 0.07 | 0.07 | 84 | 1010.4 |
| 20260505084024 | 61 | 180 | 2.6 | 8.7 | 0.05 | 0.06 | 0.06 | 83 | 1010.6 |
| 20260505083526 | 61 | 159 | 2.6 | 10.4 | 0.05 | 0.05 | 0.05 | 83 | 1010.7 |
| 20260505083040 | 61 | 207 | 3.5 | 11.3 | 0.05 | 0.05 | 0.05 | 82 | 1010.7 |
| 20260505082525 | 61 | 173 | 6.1 | 14.8 | 0.04 | 0.04 | 0.04 | 80 | 1011.1 |
| 20260505082025 | 61 | 162 | 5.2 | 14.8 | 0.03 | 0.03 | 0.03 | 80 | 1011.0 |
| 20260505081546 | 61 | 198 | 6.1 | 13.9 | 0.03 | 0.03 | 0.03 | 79 | 1010.9 |
| 20260505081025 | 61 | 173 | 5.2 | 13.0 | 0.02 | 0.02 | 0.02 | 79 | 1010.7 |
| 20260505080525 | 62 | 171 | 4.3 | 12.2 | 0.02 | 0.02 | 0.02 | 79 | 1010.6 |
| 20260505080047 | 62 | 173 | 5.2 | 17.4 | 0.02 | 0.02 | 0.02 | 77 | 1010.7 |
| 20260505075525 | 62 | 157 | 7.8 | 17.4 | 0.02 | 0.02 | 0.02 | 75 | 1010.8 |
| 20260505075024 | 63 | 145 | 5.2 | 12.2 | 0.02 | 0.02 | 0.02 | 73 | 1010.7 |
| 20260505074535 | 63 | 165 | 6.1 | 13.0 | 0.02 | 0.02 | 0.02 | 71 | 1010.8 |
| 20260505074024 | 64 | 147 | 6.1 | 13.0 | 0.01 | 0.01 | 0.01 | 67 | 1010.7 |
| 20260505073524 | 66 | 169 | 5.2 | 10.4 | 0.00 | 0.00 | 0.00 | 63 | 1010.7 |
| 20260505073043 | 67 | 167 | 4.3 | 9.6 | 0.00 | 0.00 | 0.00 | 57 | 1010.8 |
| 20260505072525 | 68 | 194 | 3.5 | 10.4 | 0.00 | 0.00 | 0.00 | 55 | 1010.6 |
| 20260505072025 | 68 | 191 | 6.1 | 10.4 | 0.00 | 0.00 | 0.00 | 51 | 1010.6 |
| 20260505071550 | 68 | 205 | 5.2 | 10.4 | 0.00 | 0.00 | 0.00 | 50 | 1010.6 |
| 20260505071025 | 69 | 232 | 4.3 | 7.8 | 0.00 | 0.00 | 0.00 | 48 | 1010.4 |
| 20260505070526 | 68 | 216 | 3.5 | 7.0 | 0.00 | 0.00 | 0.00 | 47 | 1010.4 |
| 20260505070040 | 68 | 188 | 2.6 | 8.7 | 0.00 | 0.00 | 0.00 | 48 | 1010.5 |
| 20260505065525 | 68 | 229 | 4.3 | 8.7 | 0.00 | 0.00 | 0.00 | 48 | 1010.3 |
| 20260505065025 | 69 | 194 | 4.3 | 8.7 | 0.00 | 0.00 | 0.00 | 47 | 1010.3 |
| 20260505064538 | 69 | 216 | 3.5 | 10.4 | 0.00 | 0.00 | 0.00 | 47 | 1010.1 |
| 20260505064024 | 69 | 204 | 3.5 | 11.3 | 0.00 | 0.00 | 0.00 | 46 | 1009.9 |
| 20260505063524 | 69 | 203 | 6.1 | 11.3 | 0.00 | 0.00 | 0.00 | 46 | 1009.9 |
| 20260505063047 | 69 | 148 | 3.5 | 12.2 | 0.00 | 0.00 | 0.00 | 45 | 1009.8 |
| 20260505062524 | 69 | 171 | 4.3 | 13.9 | 0.00 | 0.00 | 0.00 | 45 | 1009.9 |
| 20260505062025 | 69 | 171 | 7.0 | 14.8 | 0.00 | 0.00 | 0.00 | 44 | 1009.8 |
| 20260505061545 | 70 | 144 | 5.2 | 14.8 | 0.00 | 0.00 | 0.00 | 42 | 1009.8 |
| 20260505061026 | 70 | 183 | 5.2 | 13.0 | 0.00 | 0.00 | 0.00 | 40 | 1009.9 |
| 20260505060525 | 70 | 152 | 5.2 | 13.0 | 0.00 | 0.00 | 0.00 | 38 | 1009.8 |
| 20260505060043 | 71 | 171 | 5.2 | 12.2 | 0.00 | 0.00 | 0.00 | 36 | 1009.8 |
| 20260505055525 | 71 | 201 | 2.6 | 11.3 | 0.00 | 0.00 | 0.00 | 34 | 1009.8 |
| 20260505055025 | 71 | 212 | 3.5 | 11.3 | 0.00 | 0.00 | 0.00 | 33 | 1009.9 |
| 20260505054546 | 71 | 186 | 6.1 | 11.3 | 0.00 | 0.00 | 0.00 | 33 | 1010.2 |
| 20260505054026 | 71 | 162 | 3.5 | 10.4 | 0.00 | 0.00 | 0.00 | 32 | 1010.4 |
| 20260505053524 | 71 | 209 | 3.5 | 10.4 | 0.00 | 0.00 | 0.00 | 32 | 1010.3 |
| 20260505053044 | 72 | 179 | 5.2 | 9.6 | 0.00 | 0.00 | 0.00 | 31 | 1010.5 |
| 20260505052528 | 72 | 184 | 3.5 | 9.6 | 0.00 | 0.00 | 0.00 | 31 | 1010.5 |
| 20260505052028 | 72 | 202 | 5.2 | 13.9 | 0.00 | 0.00 | 0.00 | 30 | 1010.6 |
| 20260505051542 | 72 | 188 | 4.3 | 13.9 | 0.00 | 0.00 | 0.00 | 29 | 1010.6 |
| 20260505051024 | 72 | 200 | 4.3 | 10.4 | 0.00 | 0.00 | 0.00 | 29 | 1010.6 |
| 20260505050524 | 72 | 237 | 5.2 | 13.0 | 0.00 | 0.00 | 0.00 | 29 | 1010.5 |
| 20260505041539 | 73 | 205 | 4.3 | 11.3 | 0.00 | 0.00 | 0.00 | 31 | 1010.5 |
| 20260505041025 | 73 | 155 | 4.3 | 11.3 | 0.00 | 0.00 | 0.00 | 32 | 1010.3 |
| 20260505040526 | 73 | 199 | 5.2 | 13.0 | 0.00 | 0.00 | 0.00 | 33 | 1010.4 |
| 20260505040040 | 73 | 254 | 6.1 | 13.0 | 0.00 | 0.00 | 0.00 | 38 | 1010.1 |
| 20260505035524 | 73 | 219 | 2.6 | 5.2 | 0.00 | 0.00 | 0.00 | 43 | 1009.9 |
| 20260505035024 | 73 | 203 | 1.7 | 7.0 | 0.00 | 0.00 | 0.00 | 43 | 1009.8 |
| 20260505034545 | 73 | 213 | 2.6 | 7.0 | 0.00 | 0.00 | 0.00 | 43 | 1009.7 |
| 20260505034026 | 74 | 223 | 3.5 | 7.8 | 0.00 | 0.00 | 0.00 | 43 | 1009.7 |
| 20260505033525 | 74 | 210 | 2.6 | 7.8 | 0.00 | 0.00 | 0.00 | 43 | 1009.7 |
| 20260505033040 | 74 | 213 | 3.5 | 8.7 | 0.00 | 0.00 | 0.00 | 43 | 1009.7 |
| 20260505032525 | 74 | 229 | 4.3 | 8.7 | 0.00 | 0.00 | 0.00 | 42 | 1009.4 |
| 20260505032024 | 74 | 209 | 3.5 | 8.7 | 0.00 | 0.00 | 0.00 | 42 | 1009.2 |
| 20260505031544 | 74 | 190 | 3.5 | 7.8 | 0.00 | 0.00 | 0.00 | 42 | 1009.2 |
| 20260505031027 | 74 | 219 | 3.5 | 7.8 | 0.00 | 0.00 | 0.00 | 42 | 1009.2 |
| 20260505030525 | 74 | 196 | 1.7 | 7.0 | 0.00 | 0.00 | 0.00 | 41 | 1009.3 |
| 20260505030041 | 74 | 214 | 3.5 | 7.0 | 0.00 | 0.00 | 0.00 | 41 | 1009.2 |
| 20260505025526 | 74 | 218 | 3.5 | 8.7 | 0.00 | 0.00 | 0.00 | 40 | 1009.3 |
| 20260505025025 | 74 | 216 | 5.2 | 8.7 | 0.00 | 0.00 | 0.00 | 39 | 1009.2 |
| 20260505024539 | 75 | 198 | 3.5 | 7.0 | 0.00 | 0.00 | 0.00 | 39 | 1009.2 |
| 20260505024026 | 75 | 198 | 2.6 | 7.0 | 0.00 | 0.00 | 0.00 | 38 | 1009.1 |
| 20260505023524 | 75 | 205 | 2.6 | 7.0 | 0.00 | 0.00 | 0.00 | 38 | 1009.1 |
| 20260505023050 | 75 | 230 | 2.6 | 8.7 | 0.00 | 0.00 | 0.00 | 38 | 1009.2 |
| 20260505022524 | 75 | 230 | 3.5 | 8.7 | 0.00 | 0.00 | 0.00 | 36 | 1009.3 |
| 20260505022025 | 75 | 178 | 4.3 | 8.7 | 0.00 | 0.00 | 0.00 | 36 | 1009.4 |
| 20260505021544 | 75 | 196 | 4.3 | 9.6 | 0.00 | 0.00 | 0.00 | 36 | 1009.2 |
| 20260505021025 | 75 | 250 | 3.5 | 9.6 | 0.00 | 0.00 | 0.00 | 37 | 1009.2 |
| 20260505020526 | 76 | 232 | 2.6 | 7.0 | 0.00 | 0.00 | 0.00 | 37 | 1009.1 |
| 20260505020040 | 76 | 209 | 3.5 | 7.0 | 0.00 | 0.00 | 0.00 | 36 | 1008.9 |
| 20260505015525 | 76 | 271 | 2.6 | 6.1 | 0.00 | 0.00 | 0.00 | 36 | 1009.0 |
| 20260505015025 | 76 | 243 | 1.7 | 6.1 | 0.00 | 0.00 | 0.00 | 36 | 1008.8 |
| 20260505014540 | 76 | 196 | 1.7 | 6.1 | 0.00 | 0.00 | 0.00 | 36 | 1008.7 |
| 20260505014024 | 76 | 246 | 2.6 | 6.1 | 0.00 | 0.00 | 0.00 | 36 | 1008.6 |
| 20260505013524 | 76 | 209 | 0.9 | 5.2 | 0.00 | 0.00 | 0.00 | 36 | 1008.6 |
| 20260505013039 | 76 | 298 | 1.7 | 6.1 | 0.00 | 0.00 | 0.00 | 36 | 1008.6 |
| 20260505012524 | 76 | 227 | 1.7 | 6.1 | 0.00 | 0.00 | 0.00 | 36 | 1008.8 |
| 20260505012024 | 77 | 215 | 1.7 | 5.2 | 0.00 | 0.00 | 0.00 | 36 | 1008.7 |
| 20260505011548 | 77 | 284 | 0.9 | 6.1 | 0.00 | 0.00 | 0.00 | 35 | 1008.7 |
| 20260505011027 | 77 | 279 | 1.7 | 6.1 | 0.00 | 0.00 | 0.00 | 35 | 1008.8 |
| 20260505010525 | 77 | 265 | 0.9 | 7.0 | 0.00 | 0.00 | 0.00 | 36 | 1008.8 |
| 20260505005525 | 77 | 274 | 2.6 | 7.0 | 0.00 | 0.00 | 0.00 | 36 | 1008.8 |
| 20260505005026 | 77 | 281 | 1.7 | 5.2 | 0.00 | 0.00 | 0.00 | 37 | 1008.7 |
| 20260505004540 | 77 | 270 | 1.7 | 5.2 | 0.00 | 0.00 | 0.00 | 36 | 1008.8 |
| 20260505004026 | 77 | 204 | 1.7 | 5.2 | 0.00 | 0.00 | 0.00 | 35 | 1008.7 |
| 20260505003524 | 77 | 232 | 1.7 | 5.2 | 0.00 | 0.00 | 0.00 | 35 | 1008.7 |
| 20260505003043 | 77 | 301 | 1.7 | 4.3 | 0.00 | 0.00 | 0.00 | 36 | 1008.7 |
| 20260505002524 | 77 | 322 | 1.7 | 7.0 | 0.00 | 0.00 | 0.00 | 36 | 1008.8 |
| 20260505002024 | 77 | 285 | 0.9 | 7.0 | 0.00 | 0.00 | 0.00 | 36 | 1008.7 |
| 20260505001539 | 77 | 268 | 3.5 | 7.0 | 0.00 | 0.00 | 0.00 | 36 | 1008.8 |
| 20260505001024 | 77 | 342 | 2.6 | 7.0 | 0.00 | 0.00 | 0.00 | 36 | 1008.8 |
| 20260505000525 | 77 | 292 | 1.7 | 8.7 | 0.00 | 0.00 | 0.00 | 36 | 1008.9 |
| 20260505000048 | 77 | 261 | 4.3 | 8.7 | 0.00 | 0.00 | 0.00 | 36 | 1009.1 |
| 20260504235526 | 77 | 315 | 3.5 | 7.8 | 0.00 | 0.00 | 0.00 | 36 | 1009.0 |
| 20260504235025 | 77 | 299 | 3.5 | 8.7 | 0.00 | 0.00 | 0.00 | 36 | 1009.0 |
| 20260504234543 | 77 | 269 | 3.5 | 8.7 | 0.00 | 0.00 | 0.00 | 36 | 1009.1 |
| 20260504234026 | 77 | 286 | 3.5 | 7.8 | 0.00 | 0.00 | 0.00 | 36 | 1009.2 |
| 20260504233525 | 77 | 301 | 3.5 | 7.8 | 0.00 | 0.00 | 0.00 | 36 | 1009.2 |
| 20260504233040 | 77 | 247 | 2.6 | 7.8 | 0.00 | 0.00 | 0.00 | 36 | 1009.1 |
| 20260504232550 | 77 | 300 | 3.5 | 7.0 | 0.00 | 0.00 | 0.00 | 37 | 1008.9 |
| 20260504232024 | 78 | 289 | 2.6 | 7.0 | 0.00 | 0.00 | 0.00 | 37 | 1008.8 |
| 20260504231544 | 78 | 289 | 0.9 | 5.2 | 0.00 | 0.00 | 0.00 | 36 | 1008.8 |
| 20260504231024 | 78 | 266 | 1.7 | 8.7 | 0.00 | 0.00 | 0.00 | 36 | 1008.9 |
| 20260504230524 | 78 | 269 | 3.5 | 8.7 | 0.00 | 0.00 | 0.00 | 36 | 1009.0 |
| 20260504230044 | 78 | 253 | 2.6 | 7.0 | 0.00 | 0.00 | 0.00 | 36 | 1009.0 |
| 20260504225525 | 78 | 288 | 2.6 | 9.6 | 0.00 | 0.00 | 0.00 | 37 | 1009.1 |
| 20260504225024 | 78 | 267 | 3.5 | 9.6 | 0.00 | 0.00 | 0.00 | 37 | 1009.2 |
| 20260504224538 | 78 | 285 | 4.3 | 9.6 | 0.00 | 0.00 | 0.00 | 37 | 1009.2 |
| 20260504224024 | 78 | 292 | 6.1 | 9.6 | 0.00 | 0.00 | 0.00 | 37 | 1009.4 |
| 20260504223525 | 78 | 302 | 3.5 | 7.8 | 0.00 | 0.00 | 0.00 | 37 | 1009.4 |
| 20260504223050 | 78 | 284 | 4.3 | 7.8 | 0.00 | 0.00 | 0.00 | 37 | 1009.3 |
| 20260504222523 | 78 | 294 | 2.6 | 10.4 | 0.00 | 0.00 | 0.00 | 37 | 1009.3 |
| 20260504222024 | 78 | 213 | 4.3 | 10.4 | 0.00 | 0.00 | 0.00 | 38 | 1009.1 |
| 20260504221554 | 77 | 234 | 2.6 | 11.3 | 0.00 | 0.00 | 0.00 | 39 | 1009.1 |
| 20260504221025 | 77 | 171 | 3.5 | 11.3 | 0.00 | 0.00 | 0.00 | 38 | 1009.1 |
| 20260504220528 | 77 | 214 | 5.2 | 11.3 | 0.00 | 0.00 | 0.00 | 38 | 1009.3 |
| 20260504220042 | 77 | 215 | 3.5 | 8.7 | 0.00 | 0.00 | 0.00 | 38 | 1009.6 |
| 20260504215525 | 77 | 219 | 3.5 | 8.7 | 0.00 | 0.00 | 0.00 | 38 | 1009.6 |
| 20260504215024 | 78 | 227 | 1.7 | 8.7 | 0.00 | 0.00 | 0.00 | 38 | 1009.8 |
| 20260504214539 | 78 | 236 | 3.5 | 8.7 | 0.00 | 0.00 | 0.00 | 37 | 1009.8 |
| 20260504214024 | 78 | 272 | 2.6 | 7.8 | 0.00 | 0.00 | 0.00 | 37 | 1010.0 |
| 20260504213524 | 78 | 229 | 2.6 | 8.7 | 0.00 | 0.00 | 0.00 | 38 | 1010.3 |
| 20260504213059 | 77 | 219 | 2.6 | 8.7 | 0.00 | 0.00 | 0.00 | 37 | 1010.5 |
| 20260504212524 | 78 | 241 | 5.2 | 8.7 | 0.00 | 0.00 | 0.00 | 37 | 1010.7 |
| 20260504212025 | 78 | 229 | 3.5 | 11.3 | 0.00 | 0.00 | 0.00 | 37 | 1010.6 |
| 20260504211547 | 78 | 235 | 2.6 | 11.3 | 0.00 | 0.00 | 0.00 | 37 | 1010.6 |
| 20260504211025 | 78 | 215 | 5.2 | 13.0 | 0.00 | 0.00 | 0.00 | 37 | 1010.4 |
| 20260504210525 | 78 | 232 | 3.5 | 13.0 | 0.00 | 0.00 | 0.00 | 37 | 1010.6 |
| 20260504210041 | 78 | 229 | 5.2 | 13.0 | 0.00 | 0.00 | 0.00 | 37 | 1010.5 |
| 20260504205525 | 78 | 208 | 3.5 | 12.2 | 0.00 | 0.00 | 0.00 | 37 | 1010.5 |
| 20260504205024 | 78 | 317 | 4.3 | 9.6 | 0.00 | 0.00 | 0.00 | 37 | 1010.6 |
| 20260504204538 | 78 | 205 | 4.3 | 9.6 | 0.00 | 0.00 | 0.00 | 37 | 1010.5 |
| 20260504204024 | 78 | 267 | 3.5 | 10.4 | 0.00 | 0.00 | 0.00 | 37 | 1010.4 |
| 20260504203526 | 78 | 276 | 4.3 | 10.4 | 0.00 | 0.00 | 0.00 | 36 | 1010.4 |
| 20260504203048 | 78 | 266 | 2.6 | 9.6 | 0.00 | 0.00 | 0.00 | 37 | 1010.4 |
| 20260504202525 | 78 | 223 | 3.5 | 9.6 | 0.00 | 0.00 | 0.00 | 36 | 1010.4 |
| 20260504202024 | 78 | 254 | 3.5 | 9.6 | 0.00 | 0.00 | 0.00 | 37 | 1010.3 |
| 20260504201538 | 78 | 299 | 4.3 | 8.7 | 0.00 | 0.00 | 0.00 | 36 | 1010.4 |
| 20260504201024 | 78 | 252 | 3.5 | 13.0 | 0.00 | 0.00 | 0.00 | 37 | 1010.6 |
| 20260504200525 | 78 | 271 | 4.3 | 13.0 | 0.00 | 0.00 | 0.00 | 37 | 1010.4 |
| 20260504200036 | 78 | 227 | 3.5 | 8.7 | 0.00 | 0.00 | 0.00 | 37 | 1010.4 |
| 20260504195525 | 78 | 264 | 3.5 | 13.0 | 0.00 | 0.00 | 0.00 | 36 | 1010.5 |
| 20260504195024 | 78 | 215 | 3.5 | 13.0 | 0.00 | 0.00 | 0.00 | 37 | 1010.6 |
| 20260504194544 | 78 | 215 | 4.3 | 11.3 | 0.00 | 0.00 | 0.00 | 36 | 1010.6 |
| 20260504194024 | 78 | 291 | 2.6 | 10.4 | 0.00 | 0.00 | 0.00 | 36 | 1010.6 |
| 20260504193527 | 78 | 229 | 4.3 | 11.3 | 0.00 | 0.00 | 0.00 | 36 | 1010.7 |
| 20260504193039 | 78 | 240 | 5.2 | 11.3 | 0.00 | 0.00 | 0.00 | 36 | 1010.7 |
| 20260504192523 | 78 | 228 | 4.3 | 11.3 | 0.00 | 0.00 | 0.00 | 36 | 1010.7 |
| 20260504192026 | 79 | 277 | 6.1 | 12.2 | 0.00 | 0.00 | 0.00 | 36 | 1010.7 |
| 20260504191541 | 79 | 274 | 1.7 | 12.2 | 0.00 | 0.00 | 0.00 | 36 | 1010.6 |
| 20260504191024 | 78 | 215 | 4.3 | 12.2 | 0.00 | 0.00 | 0.00 | 36 | 1010.3 |
| 20260504190523 | 79 | 277 | 4.3 | 9.6 | 0.00 | 0.00 | 0.00 | 35 | 1010.3 |
| 20260504190039 | 79 | 278 | 4.3 | 9.6 | 0.00 | 0.00 | 0.00 | 36 | 1010.2 |
| 20260504185524 | 79 | 293 | 4.3 | 8.7 | 0.00 | 0.00 | 0.00 | 36 | 1010.2 |
| 20260504185028 | 79 | 228 | 1.7 | 8.7 | 0.00 | 0.00 | 0.00 | 35 | 1010.2 |
| 20260504184543 | 79 | 252 | 3.5 | 11.3 | 0.00 | 0.00 | 0.00 | 36 | 1010.2 |
| 20260504184028 | 78 | 222 | 2.6 | 11.3 | 0.00 | 0.00 | 0.00 | 36 | 1010.3 |
| 20260504183524 | 78 | 333 | 5.2 | 11.3 | 0.00 | 0.00 | 0.00 | 36 | 1010.6 |
| 20260504183043 | 78 | 282 | 1.7 | 12.2 | 0.00 | 0.00 | 0.00 | 36 | 1010.7 |
| 20260504182523 | 78 | 220 | 6.1 | 12.2 | 0.00 | 0.00 | 0.00 | 38 | 1010.8 |
| 20260504182025 | 78 | 225 | 3.5 | 11.3 | 0.00 | 0.00 | 0.00 | 38 | 1010.7 |
| 20260504181539 | 78 | 199 | 4.3 | 13.0 | 0.00 | 0.00 | 0.00 | 38 | 1010.6 |
| 20260504181027 | 77 | 195 | 2.6 | 13.9 | 0.00 | 0.00 | 0.00 | 39 | 1010.3 |
| 20260504180525 | 77 | 215 | 6.1 | 13.9 | 0.00 | 0.00 | 0.00 | 38 | 1010.7 |
| 20260504180046 | 77 | 209 | 4.3 | 12.2 | 0.00 | 0.00 | 0.00 | 38 | 1010.5 |
| 20260504175526 | 77 | 203 | 4.3 | 10.4 | 0.00 | 0.00 | 0.00 | 36 | 1010.4 |
| 20260504175025 | 77 | 202 | 3.5 | 10.4 | 0.00 | 0.00 | 0.00 | 36 | 1010.4 |
| 20260504174543 | 78 | 239 | 4.3 | 10.4 | 0.00 | 0.00 | 0.00 | 36 | 1010.6 |
| 20260504174024 | 77 | 237 | 4.3 | 10.4 | 0.00 | 0.00 | 0.00 | 37 | 1010.4 |
| 20260504173524 | 77 | 165 | 4.3 | 8.7 | 0.00 | 0.00 | 0.00 | 37 | 1010.6 |
| 20260504173040 | 77 | 221 | 2.6 | 13.9 | 0.00 | 0.00 | 0.00 | 37 | 1010.6 |
| 20260504172524 | 77 | 169 | 6.1 | 13.9 | 0.00 | 0.00 | 0.00 | 37 | 1010.6 |
| 20260504172024 | 77 | 217 | 4.3 | 13.0 | 0.00 | 0.00 | 0.00 | 37 | 1010.8 |
| 20260504171539 | 77 | 251 | 6.1 | 13.0 | 0.00 | 0.00 | 0.00 | 37 | 1011.0 |
| 20260504171024 | 77 | 254 | 4.3 | 12.2 | 0.00 | 0.00 | 0.00 | 37 | 1010.9 |
| 20260504170524 | 77 | 240 | 5.2 | 11.3 | 0.00 | 0.00 | 0.00 | 37 | 1010.9 |
| 20260504151024 | 73 | 182 | 2.6 | 7.8 | 0.00 | 0.00 | 0.00 | 45 | 1010.3 |
| 20260504150524 | 73 | 173 | 1.7 | 7.8 | 0.00 | 0.00 | 0.00 | 45 | 1010.2 |